Temp
70 71 67 66 56 51 47 53 53 55 55 58 62 61 60 57 57 50 63 66 67 67 69 71 73 74 75 75 75 75 76 76 77 77 76 76 76 76 76 75 75 75 75 76 76 75 74 74 74
69 74 68 58 50 43 47 54 55 56 60 60 61 58 57 53 60 62 62 67 68 68 68 69 72 74 74 75 75 75 76 76 77 77 76 76 76 76 76 75 74 75 75 75 75 75 74 74 74
75 71 62 53 46 45 47 55 57 60 61 60 58 60 58 56 59 62 65 67 67 67 68 68 71 73 74 74 75 75 75 76 76 76 76 76 75 75 75 74 74 74 75 75 75 74 74 74 73
72 68 60 51 47 54 54 55 58 60 61 64 61 56 58 65 63 65 67 67 65 66 67 69 71 73 74 74 74 75 75 75 75 75 75 75 75 74 74 73 73 74 74 75 74 73 73 73 73
69 63 53 46 49 56 57 58 58 60 58 58 59 54 55 63 67 67 66 67 65 64 66 68 71 72 73 74 74 74 74 75 76 74 74 74 74 74 73 73 72 73 73 73 73 72 72 72 72
60 59 49 47 50 57 60 59 60 59 59 57 58 56 57 64 65 65 67 64 65 65 66 67 67 69 71 72 73 73 73 73 73 73 73 73 73 73 73 72 72 72 72 72 72 72 71 71 71
57 51 48 46 50 55 61 62 59 60 59 60 62 55 55 59 65 66 65 64 65 65 65 65 66 67 67 69 70 71 72 72 72 72 72 71 71 72 72 71 71 71 71 71 71 71 71 71 70
59 57 50 50 49 54 61 61 63 63 60 62 62 54 54 62 63 65 64 64 63 64 64 63 64 65 65 66 66 67 69 69 69 69 67 66 66 68 68 67 69 70 70 70 70 70 70 70 69
57 52 48 52 54 57 58 59 61 63 62 60 62 60 63 65 63 62 60 61 62 63 62 62 63 63 64 64 63 65 66 66 66 65 63 62 62 63 63 64 67 69 69 69 69 69 68 66 65
51 47 53 61 59 57 60 60 62 60 59 58 58 60 65 63 62 60 59 59 61 62 62 62 62 62 63 67 64 64 64 63 63 62 61 61 61 61 62 61 64 66 66 67 69 68 66 62 58
51 48 58 59 63 62 61 58 63 60 55 61 60 59 62 62 61 60 61 62 61 62 63 62 62 62 63 64 62 63 62 61 61 60 60 60 60 58 58 58 58 58 59 58 60 59 58 58 57
50 55 57 59 60 59 58 62 60 58 63 65 62 64 63 61 61 61 61 61 61 61 62 62 62 62 62 63 62 63 62 60 59 60 60 59 58 57 56 56 56 55 55 55 55 56 57 57 58
50 55 57 59 59 59 61 59 57 58 61 60 61 63 63 63 63 63 64 64 63 61 62 62 62 62 62 62 62 61 62 61 61 60 60 59 58 57 56 55 55 54 55 55 55 55 56 56 57
53 54 55 56 57 57 56 57 55 62 61 57 59 61 63 63 63 62 63 62 62 63 63 63 62 62 63 62 62 62 61 61 60 60 60 60 59 58 57 55 55 55 55 56 55 55 55 55 56
53 50 52 54 56 55 59 53 54 63 57 57 57 59 60 62 63 63 64 63 64 65 65 64 63 63 63 63 62 62 62 62 61 60 60 60 60 59 58 57 56 56 56 56 55 55 55 54 55
47 48 43 54 56 56 55 46 58 65 58 58 55 56 59 60 63 66 66 65 65 65 64 65 67 63 63 63 62 62 62 62 61 60 60 61 61 59 58 58 57 57 56 55 54 54 54 53 53
43 38 40 48 57 55 52 48 60 65 57 59 56 56 58 61 61 65 67 67 66 66 66 65 65 63 63 63 64 62 61 61 62 61 61 61 61 60 59 58 58 57 56 55 55 54 54 53 53
40 40 43 46 51 49 48 50 59 61 57 58 59 55 57 58 62 65 66 67 67 66 66 66 66 64 64 64 63 60 60 60 60 61 61 61 62 60 59 58 58 57 55 54 54 54 53 53 54
48 44 42 49 54 49 48 50 55 59 58 54 54 55 56 58 64 64 64 65 65 64 64 65 64 64 64 62 61 61 60 60 60 60 62 62 62 60 59 58 57 56 56 56 54 53 53 53 54
47 42 42 49 51 48 48 48 54 56 58 60 61 59 55 60 62 63 63 63 64 63 64 64 65 65 64 65 64 64 63 62 63 62 61 62 61 61 60 59 58 57 56 54 54 53 52 53 55
46 45 42 45 47 48 44 44 49 56 54 59 60 61 64 61 61 63 61 61 63 64 63 64 65 65 64 65 64 59 59 57 58 60 61 61 62 61 61 59 59 57 58 57 54 54 54 52 52
41 50 48 46 43 39 46 37 48 53 55 57 58 60 62 64 62 64 63 62 62 63 66 66 65 65 64 64 62 61 62 62 62 62 63 61 61 62 61 60 59 58 58 57 56 55 55 53 52
46 50 46 46 42 39 38 34 43 50 49 54 57 61 64 66 65 62 64 64 64 65 65 65 64 64 64 63 64 62 61 62 62 61 60 61 61 62 61 61 59 58 58 58 57 54 55 55 54
49 45 44 42 40 32 40 37 41 44 47 52 58 58 61 64 63 63 64 63 64 64 64 64 64 63 64 63 63 61 61 61 59 59 59 60 61 61 61 60 60 59 59 57 57 57 56 56 56
47 41 31 30 29 31 38 37 44 49 50 51 55 59 54 56 56 59 58 58 61 58 62 63 63 61 62 62 62 62 62 62 60 60 60 59 59 60 60 60 60 59 59 59 58 57 57 56 55
43 43 34 27 27 30 34 32 40 52 57 61 57 59 53 54 53 55 58 58 59 59 60 61 62 62 61 62 62 63 63 62 62 61 62 61 61 61 61 60 61 60 60 59 58 58 57 57 56
41 37 44 34 25 25 33 37 44 51 52 53 51 51 53 54 54 52 52 53 55 56 59 60 61 63 62 62 62 62 63 62 62 62 62 62 62 61 59 60 60 60 60 59 58 58 57 56 55
44 47 35 34 25 22 30 30 38 44 51 60 51 49 51 51 53 54 52 50 51 54 57 58 61 61 62 62 62 62 62 62 63 62 61 61 62 59 59 60 60 60 59 59 59 59 59 56 56
40 39 41 41 35 31 24 33 43 52 54 50 53 52 52 52 51 52 52 50 49 48 50 53 54 55 57 59 61 61 61 62 62 62 62 61 61 59 60 60 60 59 59 59 59 59 59 56 56
47 43 43 36 32 31 31 38 46 48 48 48 50 51 50 50 51 50 51 49 48 47 46 49 51 53 56 55 55 56 57 57 59 60 62 61 60 59 60 60 60 60 61 60 59 58 58 56 55
MSLP
1014.84 1014.49 1014.64 1015.21 1017.01 1017.41 1017.16 1016.66 1016.24 1016.33 1016.48 1016.51 1016.73 1017.42 1018.15 1018.78 1019.12 1019.91 1019.05 1019.20 1019.08 1019.46 1019.72 1019.79 1019.95 1020.15 1020.23 1020.32 1020.49 1020.63 1020.77 1020.82 1020.91 1021.05 1021.13 1021.31 1021.44 1021.51 1021.55 1021.59 1021.55 1021.50 1021.58 1021.63 1021.66 1021.87 1021.91 1021.88 1021.93
1014.90 1014.50 1015.10 1016.35 1017.63 1017.99 1017.55 1016.64 1016.36 1016.27 1016.49 1016.77 1017.01 1017.62 1018.21 1018.85 1018.95 1019.25 1019.44 1019.39 1019.34 1019.60 1019.83 1020.03 1020.12 1020.31 1020.48 1020.64 1020.79 1020.84 1020.96 1021.04 1021.10 1021.28 1021.34 1021.49 1021.72 1021.87 1021.98 1022.13 1022.14 1022.11 1022.19 1022.07 1022.11 1022.29 1022.31 1022.29 1022.35
1014.72 1014.97 1016.35 1017.25 1018.18 1017.94 1017.19 1016.47 1016.19 1016.31 1016.43 1016.51 1017.29 1017.70 1018.20 1018.63 1018.94 1019.04 1018.96 1019.25 1019.60 1019.84 1019.94 1020.12 1020.33 1020.47 1020.72 1020.88 1021.03 1021.20 1021.31 1021.45 1021.51 1021.52 1021.50 1021.68 1021.92 1022.04 1022.28 1022.48 1022.63 1022.59 1022.47 1022.45 1022.52 1022.75 1022.67 1022.71 1022.79
1015.21 1015.74 1017.29 1017.72 1017.88 1017.22 1016.68 1016.24 1016.10 1016.39 1016.55 1016.53 1017.07 1018.03 1018.19 1018.13 1018.43 1018.70 1018.97 1019.28 1019.75 1019.91 1020.13 1020.23 1020.49 1020.61 1020.92 1021.14 1021.31 1021.51 1021.66 1021.81 1021.93 1021.98 1022.00 1022.20 1022.45 1022.59 1022.61 1022.75 1022.93 1022.98 1022.92 1022.89 1023.00 1023.11 1023.10 1023.08 1023.21
1015.80 1016.77 1017.79 1018.05 1017.68 1016.88 1016.32 1016.07 1016.17 1016.27 1016.44 1016.75 1017.05 1018.11 1018.43 1018.33 1018.32 1018.79 1019.14 1019.41 1019.82 1020.10 1020.16 1020.42 1020.55 1020.79 1020.83 1021.16 1021.44 1021.60 1021.78 1021.94 1022.12 1022.39 1022.49 1022.62 1022.76 1022.87 1023.11 1023.16 1023.20 1023.23 1023.21 1023.34 1023.48 1023.49 1023.56 1023.54 1023.56
1017.19 1017.82 1018.29 1018.24 1017.66 1016.75 1016.26 1016.02 1016.12 1016.39 1016.61 1017.00 1017.44 1018.21 1018.60 1018.37 1018.63 1019.11 1019.28 1019.66 1019.86 1020.12 1020.35 1020.52 1020.70 1020.83 1021.04 1021.19 1021.42 1021.77 1021.90 1022.10 1022.34 1022.66 1022.87 1023.02 1023.11 1023.27 1023.40 1023.57 1023.66 1023.60 1023.71 1023.77 1023.88 1023.94 1023.92 1023.94 1023.93
1018.82 1019.03 1018.83 1018.20 1017.59 1016.72 1016.07 1015.83 1016.08 1016.26 1016.58 1016.73 1017.17 1018.47 1018.95 1018.99 1018.77 1019.08 1019.41 1019.68 1020.03 1020.34 1020.58 1020.70 1020.88 1020.93 1021.03 1021.24 1021.52 1021.80 1022.09 1022.27 1022.57 1022.86 1023.06 1023.27 1023.43 1023.57 1023.68 1023.87 1023.89 1023.93 1023.91 1024.00 1024.09 1024.12 1024.11 1024.11 1024.24
1020.51 1019.77 1019.12 1018.30 1017.70 1016.77 1015.96 1015.89 1015.55 1015.95 1016.30 1016.52 1016.80 1017.76 1018.43 1018.40 1018.95 1019.29 1019.70 1019.96 1020.26 1020.46 1020.64 1020.86 1020.89 1021.14 1021.22 1021.30 1021.61 1021.82 1022.11 1022.46 1022.80 1023.13 1023.38 1023.58 1023.73 1023.86 1023.92 1024.10 1024.15 1024.25 1024.34 1024.33 1024.40 1024.46 1024.46 1024.47 1024.48
1021.43 1020.67 1019.44 1018.31 1017.77 1016.91 1016.21 1016.02 1015.71 1015.69 1016.06 1016.42 1016.64 1017.05 1016.85 1017.65 1018.95 1019.61 1020.20 1020.39 1020.51 1020.72 1020.76 1020.77 1020.92 1021.17 1021.41 1021.58 1021.88 1022.08 1022.29 1022.63 1022.91 1023.27 1023.62 1023.88 1024.14 1024.24 1024.26 1024.31 1024.35 1024.40 1024.45 1024.48 1024.54 1024.64 1024.73 1024.88 1024.96
1022.15 1021.58 1019.39 1018.28 1017.75 1017.15 1016.62 1016.47 1015.92 1016.03 1016.23 1016.59 1016.79 1016.94 1017.12 1017.70 1018.61 1019.14 1019.76 1019.96 1020.18 1020.44 1020.68 1020.77 1020.93 1021.06 1021.38 1021.51 1022.00 1022.28 1022.52 1022.76 1023.09 1023.36 1023.71 1024.03 1024.26 1024.37 1024.49 1024.58 1024.62 1024.66 1024.73 1024.75 1024.75 1024.83 1024.97 1025.07 1025.30
1021.97 1021.29 1019.74 1018.64 1018.15 1017.83 1017.16 1016.50 1016.15 1016.04 1016.37 1015.86 1016.05 1016.75 1017.35 1017.88 1018.59 1018.73 1019.23 1019.23 1019.29 1019.84 1020.49 1020.71 1020.93 1021.14 1021.43 1021.48 1022.00 1022.43 1022.74 1023.07 1023.26 1023.47 1023.67 1023.93 1024.20 1024.45 1024.65 1024.78 1024.89 1025.03 1025.04 1025.07 1025.13 1025.21 1025.31 1025.45 1025.57
1021.50 1020.41 1019.73 1019.17 1018.59 1018.30 1017.73 1017.01 1016.20 1015.87 1014.95 1014.76 1015.47 1016.02 1016.82 1017.66 1018.06 1018.38 1018.58 1019.02 1019.32 1019.87 1020.16 1020.55 1020.77 1021.13 1021.40 1021.61 1021.90 1022.36 1022.51 1023.00 1023.35 1023.52 1023.67 1023.97 1024.35 1024.68 1024.85 1024.91 1025.07 1025.15 1025.20 1025.29 1025.39 1025.49 1025.52 1025.60 1025.49
1020.38 1019.91 1019.52 1018.93 1018.61 1018.55 1018.01 1017.28 1016.75 1015.62 1015.04 1014.96 1015.55 1016.31 1016.66 1016.88 1017.31 1017.76 1018.27 1018.60 1018.96 1019.33 1019.82 1020.09 1020.46 1020.81 1021.12 1021.44 1021.73 1022.17 1022.47 1022.70 1023.08 1023.39 1023.60 1023.78 1024.16 1024.49 1024.85 1025.03 1025.21 1025.31 1025.30 1025.41 1025.57 1025.67 1025.67 1025.60 1025.63
1019.17 1019.34 1019.33 1018.74 1018.56 1018.69 1018.56 1017.01 1016.68 1015.11 1015.02 1015.47 1015.86 1016.06 1016.27 1016.43 1016.67 1017.47 1017.79 1018.09 1018.36 1018.59 1019.07 1019.72 1020.08 1020.47 1020.71 1021.13 1021.39 1021.89 1022.16 1022.41 1022.92 1023.33 1023.43 1023.71 1024.02 1024.32 1024.59 1024.93 1025.13 1025.24 1025.26 1025.32 1025.53 1025.51 1025.71 1025.86 1025.79
1019.71 1019.60 1019.05 1018.27 1018.33 1018.46 1018.25 1016.75 1016.07 1015.28 1015.42 1015.67 1016.08 1016.13 1016.28 1016.16 1016.65 1016.54 1016.55 1017.03 1017.42 1017.84 1018.58 1019.25 1019.71 1020.18 1020.45 1020.84 1021.24 1021.66 1021.84 1022.14 1022.54 1022.91 1023.23 1023.52 1023.65 1023.95 1024.35 1024.59 1024.77 1024.82 1024.99 1025.25 1025.43 1025.67 1025.79 1025.86 1025.93
1019.85 1019.51 1018.47 1017.45 1017.61 1018.08 1018.61 1016.49 1015.60 1015.03 1015.41 1015.69 1015.97 1016.16 1016.06 1015.97 1015.72 1015.68 1016.07 1016.61 1016.97 1017.50 1017.94 1018.56 1019.10 1019.62 1020.03 1020.25 1020.78 1021.34 1021.69 1021.90 1022.14 1022.58 1022.97 1023.19 1023.38 1023.62 1024.02 1024.24 1024.41 1024.53 1024.80 1025.12 1025.43 1025.58 1025.78 1025.88 1025.91
1019.23 1018.71 1018.18 1017.68 1017.18 1017.91 1017.92 1016.54 1015.45 1014.85 1015.16 1015.28 1015.47 1015.66 1015.62 1015.61 1015.63 1015.49 1015.65 1015.91 1016.22 1016.55 1017.22 1017.87 1018.51 1018.96 1019.63 1019.88 1020.26 1020.75 1021.13 1021.40 1021.70 1022.02 1022.43 1022.66 1022.95 1023.27 1023.59 1023.83 1023.95 1024.18 1024.70 1025.05 1025.25 1025.48 1025.56 1025.82 1025.92
1018.17 1018.63 1017.79 1017.23 1017.25 1017.90 1017.66 1016.73 1015.71 1015.12 1015.12 1014.58 1014.63 1014.96 1014.98 1014.93 1014.42 1014.40 1014.79 1015.10 1015.54 1015.98 1016.55 1017.06 1017.71 1018.40 1019.03 1019.32 1019.91 1020.48 1020.89 1021.12 1021.29 1021.51 1021.78 1022.09 1022.47 1022.85 1023.18 1023.52 1023.71 1024.10 1024.51 1024.83 1024.99 1025.27 1025.50 1025.63 1025.66
1017.57 1017.83 1017.58 1017.02 1016.88 1017.13 1016.93 1016.44 1015.36 1014.79 1014.69 1014.30 1014.30 1014.25 1014.19 1014.03 1013.33 1013.95 1014.17 1014.66 1015.17 1015.57 1016.12 1016.42 1016.89 1017.50 1018.27 1018.94 1019.53 1019.98 1020.38 1020.82 1020.97 1020.98 1021.15 1021.52 1021.88 1022.26 1022.65 1022.96 1023.34 1023.60 1024.03 1024.35 1024.68 1025.15 1025.53 1025.72 1025.78
1017.41 1017.58 1017.27 1017.56 1017.57 1017.37 1016.59 1015.92 1014.80 1013.87 1013.68 1013.35 1013.14 1013.07 1013.18 1012.95 1013.07 1013.02 1013.32 1013.95 1014.27 1014.59 1014.81 1015.45 1015.83 1016.56 1017.10 1017.76 1018.36 1018.97 1019.54 1019.80 1019.84 1020.25 1020.54 1020.73 1021.13 1021.57 1021.95 1022.25 1022.61 1023.06 1023.60 1023.98 1024.40 1024.91 1025.40 1025.51 1025.56
1017.26 1016.91 1017.33 1017.67 1017.81 1017.49 1016.89 1015.10 1013.67 1012.17 1012.37 1012.06 1011.67 1011.72 1011.78 1011.76 1011.89 1012.05 1012.38 1012.55 1013.02 1013.39 1013.80 1014.26 1014.63 1015.54 1016.15 1016.75 1017.72 1018.47 1019.01 1019.48 1019.70 1019.82 1019.95 1020.03 1020.36 1020.72 1021.01 1021.42 1021.77 1022.27 1022.64 1023.23 1023.74 1024.19 1024.59 1025.02 1025.17
1016.59 1016.75 1017.32 1017.72 1018.10 1017.63 1016.71 1014.14 1012.07 1011.20 1010.73 1010.40 1010.55 1010.51 1010.28 1010.42 1010.55 1010.73 1011.12 1011.55 1011.80 1011.93 1012.62 1013.10 1013.90 1014.63 1015.36 1016.06 1016.84 1017.17 1017.35 1017.85 1018.25 1018.61 1018.97 1019.30 1019.55 1019.83 1020.13 1020.55 1021.08 1021.53 1021.95 1022.40 1022.77 1023.19 1023.76 1024.27 1024.58
1016.06 1016.42 1017.19 1017.82 1018.08 1017.90 1017.21 1016.54 1011.24 1010.64 1010.11 1009.54 1009.23 1008.99 1008.82 1008.60 1008.99 1009.49 1009.78 1010.04 1010.38 1010.89 1011.46 1012.10 1012.87 1013.59 1014.35 1014.93 1015.50 1016.16 1016.72 1017.03 1017.50 1017.99 1018.23 1018.46 1018.71 1018.94 1019.39 1019.80 1020.35 1020.82 1021.23 1021.48 1022.02 1022.55 1022.92 1023.12 1023.39
1016.27 1016.87 1017.55 1018.07 1018.49 1017.80 1016.42 1016.02 1010.21 1010.41 1009.36 1008.53 1008.14 1008.34 1008.05 1007.94 1008.20 1008.31 1008.62 1009.23 1009.62 1010.16 1010.73 1011.30 1011.96 1012.50 1013.17 1014.06 1014.63 1015.15 1015.69 1016.28 1016.94 1017.27 1017.63 1017.81 1018.11 1018.41 1018.53 1019.00 1019.44 1019.91 1020.34 1020.76 1021.05 1021.36 1021.86 1022.10 1022.41
1015.93 1016.69 1017.23 1018.10 1018.38 1016.27 1015.21 1014.89 1010.28 1009.05 1008.52 1008.39 1008.28 1007.86 1007.62 1007.88 1007.87 1008.01 1008.34 1008.77 1009.06 1009.53 1009.94 1010.50 1011.11 1011.59 1012.29 1013.05 1013.72 1014.15 1014.59 1015.35 1015.82 1016.31 1016.71 1017.10 1017.37 1017.55 1017.77 1018.25 1018.73 1019.06 1019.27 1019.64 1019.98 1020.50 1020.92 1021.27 1021.56
1015.17 1015.72 1016.26 1016.75 1017.11 1016.09 1015.89 1012.76 1009.30 1008.07 1007.47 1006.98 1007.23 1007.14 1007.43 1007.58 1007.55 1007.58 1007.56 1007.80 1008.26 1008.63 1008.94 1009.49 1010.08 1010.56 1011.25 1011.92 1012.63 1013.15 1013.74 1014.27 1014.75 1015.28 1015.69 1016.03 1016.32 1016.50 1016.86 1017.24 1017.56 1017.83 1018.24 1018.70 1019.17 1019.68 1020.04 1020.51 1020.82
1015.23 1015.35 1015.65 1016.51 1017.53 1016.75 1014.74 1011.08 1009.38 1007.66 1007.08 1006.64 1006.61 1007.07 1007.25 1007.21 1007.12 1007.01 1007.15 1007.28 1007.53 1007.96 1008.22 1008.51 1009.10 1009.53 1010.18 1010.80 1011.46 1012.19 1012.77 1013.21 1013.47 1014.00 1014.73 1015.08 1015.41 1015.73 1016.16 1016.45 1016.92 1017.08 1017.34 1017.75 1018.31 1018.65 1018.91 1019.42 1019.85
1013.79 1014.68 1015.79 1016.05 1016.63 1015.63 1013.37 1011.73 1008.65 1007.64 1006.57 1005.66 1006.03 1006.35 1006.61 1006.71 1007.00 1006.75 1006.91 1006.86 1006.86 1007.30 1007.53 1008.11 1008.47 1008.76 1009.26 1009.84 1010.43 1011.01 1011.49 1012.01 1012.58 1013.36 1013.65 1014.02 1014.52 1015.08 1015.51 1015.87 1016.16 1016.42 1016.63 1016.99 1017.50 1017.79 1018.07 1018.45 1018.81
1013.53 1013.72 1014.00 1014.23 1014.55 1014.00 1012.71 1009.54 1007.21 1006.43 1005.35 1005.76 1005.84 1005.48 1005.65 1005.78 1006.28 1006.28 1006.57 1006.77 1006.84 1007.20 1007.60 1007.98 1008.42 1008.75 1009.13 1009.55 1009.97 1010.48 1010.94 1011.42 1011.93 1012.36 1012.79 1013.22 1013.79 1014.17 1014.69 1015.00 1015.29 1015.62 1015.93 1016.18 1016.38 1016.61 1017.00 1017.42 1017.85
1012.35 1012.25 1012.68 1013.14 1013.26 1012.83 1011.99 1007.95 1006.10 1005.67 1005.51 1006.02 1005.92 1005.51 1005.60 1005.63 1005.68 1005.96 1006.29 1006.63 1006.95 1007.22 1007.58 1007.77 1008.15 1008.43 1008.72 1009.19 1009.75 1010.15 1010.52 1010.98 1011.33 1011.62 1011.86 1012.31 1012.73 1013.24 1013.60 1013.99 1014.25 1014.44 1014.71 1015.08 1015.44 1015.71 1016.09 1016.54 1017.01
Wind_Speed
7 6 3 5 6 5 2 2 1 3 2 3 4 5 7 3 4 4 2 4 9 8 5 7 8 10 12 13 12 14 14 14 15 14 16 17 15 15 15 15 13 15 16 16 17 17 17 18 18
5 4 5 3 5 3 5 3 4 2 4 8 6 4 5 2 2 5 5 5 8 7 6 6 9 10 12 13 13 13 13 12 13 14 15 17 15 15 14 14 13 15 15 16 17 17 15 16 17
3 4 4 5 3 2 4 3 5 2 7 1 4 4 5 4 1 9 4 8 7 6 6 6 9 10 13 13 12 12 12 12 12 9 16 18 15 14 14 14 13 13 14 16 17 16 17 17 16
4 5 5 4 2 5 4 4 3 6 3 3 5 6 2 4 8 7 11 10 8 6 6 8 9 10 12 12 12 11 10 11 11 11 15 15 14 13 14 14 13 12 13 15 15 15 15 15 14
4 3 3 1 4 5 3 3 5 3 2 2 1 4 2 2 6 13 12 9 9 6 7 7 11 10 13 13 12 11 11 10 11 11 13 14 13 13 13 13 13 12 13 13 13 13 14 13 13
5 3 3 3 4 4 4 3 4 2 2 3 6 6 5 4 11 10 11 8 7 8 6 6 9 10 11 13 13 12 11 12 13 11 11 12 12 11 13 12 11 12 12 11 11 12 13 13 13
4 3 3 3 3 3 4 6 4 5 4 4 9 6 0 4 8 11 9 8 7 6 5 5 6 8 10 11 12 12 11 12 12 10 10 9 9 9 11 10 10 11 11 10 9 10 11 12 11
5 1 3 3 3 5 3 5 3 7 6 3 3 6 5 8 8 9 8 9 7 6 6 6 6 5 6 7 10 11 11 11 10 10 10 9 8 8 8 9 8 9 9 9 8 8 9 11 10
7 3 2 3 4 5 1 3 2 0 7 2 3 6 4 16 12 9 5 5 7 5 6 6 6 6 5 5 5 9 11 11 11 9 9 7 4 4 6 6 8 8 8 8 7 7 7 8 9
5 4 4 2 4 5 4 5 5 4 5 3 2 0 10 19 17 16 14 13 14 13 9 7 6 7 6 5 7 5 5 4 5 5 6 4 5 4 4 5 6 6 6 5 6 5 4 4 3
6 5 4 4 9 11 8 4 4 5 4 8 13 8 16 15 15 16 14 15 17 14 9 9 8 6 7 6 4 3 3 3 3 6 5 5 4 3 3 2 2 2 3 1 1 2 2 2 2
5 10 7 6 6 11 11 8 6 8 9 6 7 15 18 17 18 17 16 13 13 12 13 10 8 8 7 4 5 6 5 4 3 4 6 4 3 3 3 3 3 3 2 3 2 1 1 1 2
6 5 6 7 7 10 10 10 8 9 6 1 9 11 19 19 20 15 12 11 12 14 13 13 11 10 8 8 5 5 6 5 5 5 5 4 4 4 4 3 3 3 3 3 2 2 2 2 2
12 6 5 3 7 7 11 12 2 8 6 4 10 16 18 19 21 13 13 14 15 14 15 12 12 11 10 9 9 7 6 6 5 4 6 6 4 4 4 4 4 4 4 3 3 4 3 2 2
4 4 5 6 4 5 8 13 9 10 1 8 10 12 12 16 13 18 18 17 16 12 13 13 13 11 11 11 8 7 6 6 6 5 6 7 7 7 6 4 4 4 4 4 3 2 1 2 2
4 4 1 4 6 6 5 18 12 10 6 10 9 9 13 14 16 20 16 16 15 13 15 14 12 13 12 11 8 6 6 6 6 5 5 8 8 7 6 5 5 5 4 4 3 3 3 3 3
2 4 4 5 7 3 12 8 11 11 9 12 10 11 12 15 14 16 15 15 15 16 14 14 14 14 14 11 8 7 7 7 6 5 6 8 9 8 7 5 5 5 4 4 3 4 3 3 3
6 5 4 6 6 6 13 18 17 11 7 14 11 10 12 13 20 18 17 16 15 15 14 15 13 13 14 9 7 4 4 5 4 7 7 9 8 9 7 5 5 5 4 4 3 5 3 2 3
6 9 10 6 5 6 12 17 19 16 10 10 10 11 12 15 18 13 15 15 12 12 14 16 16 15 12 9 9 8 9 6 6 6 9 9 8 9 8 6 5 5 6 7 5 3 4 4 1
5 10 12 4 4 3 9 18 20 20 17 19 18 13 12 16 12 13 14 14 17 15 19 18 18 17 14 11 10 8 8 7 8 7 7 10 10 9 9 9 8 7 5 6 6 5 2 3 4
16 18 7 5 2 4 4 17 22 21 10 17 16 14 16 18 16 16 14 18 18 20 19 19 20 17 15 15 9 3 2 2 4 6 8 9 11 11 12 11 9 8 8 7 6 7 7 4 3
19 9 5 3 3 5 6 12 19 13 22 23 19 19 21 20 14 16 15 16 18 20 17 19 17 17 15 15 13 16 14 14 10 10 10 8 12 13 12 11 10 9 8 8 8 7 6 5 6
8 9 11 7 6 3 4 5 7 9 14 16 19 21 22 24 19 17 18 19 16 18 17 17 17 17 16 17 18 14 13 10 7 8 10 12 11 13 12 12 11 10 8 9 9 7 9 8 5
8 5 3 3 2 8 8 8 11 8 8 10 13 15 21 20 14 16 15 11 13 12 14 14 17 18 18 17 18 17 17 13 9 9 9 9 9 9 13 12 11 10 10 10 10 11 11 11 9
9 9 3 5 5 11 8 12 21 5 5 7 10 13 10 10 10 13 13 13 13 13 16 15 17 17 18 19 18 18 18 16 15 13 10 10 8 9 11 11 11 10 12 11 11 11 12 11 11
17 11 4 5 5 2 1 13 9 12 17 14 10 16 7 9 9 11 14 13 14 15 16 17 18 18 18 19 18 18 16 12 12 12 11 10 10 9 9 11 13 14 13 12 11 9 10 10 10
7 8 2 3 2 2 6 10 6 14 11 12 12 9 13 11 9 11 9 10 10 12 16 18 18 18 17 18 17 16 15 16 15 15 11 10 11 8 8 11 13 13 13 13 12 11 11 10 10
10 11 5 3 4 6 6 7 10 4 14 19 8 11 12 10 10 9 8 9 9 10 11 13 15 17 15 18 16 14 16 16 15 11 13 13 10 8 9 11 11 11 12 12 13 11 11 11 9
7 9 7 6 5 7 3 10 10 21 15 7 11 8 11 10 10 9 7 5 6 5 7 8 8 10 10 12 13 13 12 13 12 12 12 12 10 10 12 12 12 12 12 14 14 14 12 13 11
17 11 13 9 11 4 2 12 4 9 5 6 12 9 8 8 7 8 7 5 4 6 7 8 7 9 11 8 7 8 7 8 11 12 14 12 13 10 13 13 13 14 14 13 13 13 11 12 12
Wind_Direction
334 332 76 43 44 59 300 266 148 124 96 332 101 143 156 91 167 212 315 143 129 136 148 142 138 136 131 128 131 125 118 116 115 115 115 111 106 105 102 99 99 100 100 101 96 82 73 81 87
329 0 40 81 78 44 282 264 166 216 141 138 97 95 60 122 106 128 117 152 131 137 130 136 136 136 137 134 133 125 120 119 117 123 127 116 111 107 101 96 94 96 99 106 100 85 81 95 94
44 42 71 83 102 179 239 234 167 114 164 181 96 58 141 179 57 161 164 141 129 128 131 140 141 142 139 134 121 118 118 120 123 119 126 118 116 112 104 100 94 98 107 109 99 87 86 98 93
20 14 36 78 246 257 223 195 177 144 181 60 127 74 33 233 155 174 142 138 136 136 133 144 145 138 144 130 123 124 127 129 127 107 105 110 111 107 105 102 99 100 107 108 98 91 89 94 96
37 63 51 43 274 275 270 170 159 162 126 121 125 167 58 10 111 136 141 144 148 146 143 146 152 146 140 139 137 137 138 135 147 119 117 117 117 118 111 106 107 108 112 109 103 95 90 96 108
23 61 75 233 252 283 292 190 166 168 171 166 85 122 175 134 136 155 146 145 147 150 149 154 157 148 141 144 146 143 133 125 122 133 129 126 122 119 116 108 107 112 112 111 105 99 92 93 108
22 51 227 214 267 295 229 151 181 178 170 234 151 129 301 189 160 152 146 136 141 147 148 151 160 164 155 150 148 146 140 135 132 133 131 120 106 126 124 113 113 116 119 116 113 108 95 88 103
330 37 290 239 203 261 259 179 206 168 209 83 162 174 200 196 154 136 139 146 148 155 159 166 158 165 159 157 156 150 146 139 134 123 115 113 109 109 111 110 117 120 121 117 111 106 95 92 93
349 284 238 247 173 253 325 222 182 292 130 205 186 162 215 136 134 133 138 146 161 173 180 171 166 162 160 153 158 151 148 144 140 132 128 109 115 115 112 132 130 129 128 127 121 109 87 67 65
104 298 227 314 316 296 287 227 201 170 151 233 250 288 135 143 159 165 177 179 181 185 191 185 175 166 165 160 155 151 151 146 146 142 143 140 145 148 139 140 143 142 140 132 129 115 75 60 72
160 203 315 298 327 342 303 249 208 179 242 211 198 167 159 162 174 178 187 189 188 184 187 188 180 174 173 160 148 156 144 149 153 156 158 157 151 152 157 143 151 134 138 150 85 48 70 97 89
187 231 225 280 334 335 311 310 240 197 220 209 192 168 160 173 183 190 190 190 179 188 195 189 183 179 182 161 165 177 165 163 170 177 167 155 156 170 176 169 180 182 189 188 176 198 171 162 192
168 212 212 241 304 313 309 275 251 249 236 301 141 162 178 182 193 197 200 191 186 191 194 194 183 185 183 177 169 172 186 176 184 176 185 166 168 171 175 199 187 198 192 204 207 208 211 207 206
185 183 230 265 283 298 290 276 350 269 183 126 163 182 189 190 194 191 195 195 196 193 195 191 188 191 182 192 178 188 185 183 179 192 194 180 169 179 184 186 201 213 208 202 201 196 200 221 229
147 204 222 204 219 245 324 283 218 243 222 182 197 196 202 204 193 201 203 200 197 199 190 192 188 188 189 192 187 192 194 179 189 194 186 187 188 184 184 190 200 211 206 206 202 220 178 219 273
191 241 186 188 179 231 167 266 286 245 194 222 215 209 204 214 207 210 205 205 203 193 192 191 191 190 192 192 186 193 191 190 194 181 188 197 195 181 191 197 202 202 201 190 188 186 201 217 225
213 245 198 288 181 254 200 275 250 240 205 237 211 214 212 222 226 228 213 207 198 200 190 191 193 189 195 195 187 189 191 191 191 185 194 199 199 191 195 196 206 194 184 191 187 207 183 204 238
190 236 227 215 178 187 261 258 267 274 248 236 226 217 221 219 225 218 214 209 206 197 195 193 189 191 194 189 189 179 184 196 176 194 197 200 200 196 194 200 204 182 178 199 191 204 203 198 217
178 204 227 237 161 158 239 256 259 260 254 264 244 230 225 225 228 221 217 213 202 197 193 196 193 193 183 184 190 199 204 199 205 203 203 201 200 197 194 203 197 188 193 201 196 159 195 251 231
218 213 226 317 160 198 238 257 257 256 245 245 242 238 224 239 227 224 210 202 207 197 200 201 202 197 193 196 197 202 198 208 207 205 206 203 196 196 200 201 202 194 186 197 181 166 165 236 183
228 225 199 218 341 257 335 264 262 254 229 237 241 239 237 224 228 224 208 204 201 206 204 202 203 199 195 195 186 140 127 111 190 202 211 207 199 201 202 203 202 192 193 202 186 180 180 199 214
230 191 211 182 220 239 164 288 255 250 239 240 239 237 237 236 222 223 216 212 206 210 203 205 200 197 195 186 188 198 208 214 215 215 214 203 203 209 207 203 202 199 198 201 192 188 193 163 211
227 160 198 227 274 266 173 277 270 236 229 237 237 238 238 233 223 211 212 214 207 207 201 196 192 194 190 190 197 198 207 210 204 207 206 208 208 211 208 204 201 202 200 207 191 179 197 199 193
127 82 78 114 148 245 189 195 253 227 210 234 241 238 235 240 226 222 216 208 210 201 198 192 190 195 193 193 199 197 205 204 198 201 207 209 212 211 214 204 205 206 205 199 198 202 204 208 212
155 137 201 182 195 242 184 197 245 252 236 249 260 259 234 232 222 220 207 199 201 187 193 193 193 194 192 194 198 201 206 203 205 203 208 206 209 213 213 202 205 208 208 205 199 201 210 208 211
196 183 195 221 198 196 248 227 245 234 242 262 257 252 267 255 229 222 217 206 202 196 192 191 194 196 190 194 199 205 204 204 209 206 207 215 215 216 201 198 208 209 207 205 202 207 213 212 215
165 201 180 89 147 354 222 285 284 270 244 253 233 223 242 242 244 237 220 210 200 192 196 194 196 202 194 193 198 202 203 205 209 210 205 209 215 211 192 194 205 209 210 206 201 212 211 208 210
191 138 157 153 214 239 261 277 240 304 254 250 250 213 240 244 250 246 225 215 208 205 201 200 201 199 194 196 197 200 203 206 212 203 209 211 213 193 188 199 207 210 208 205 207 217 218 208 212
159 181 201 167 189 221 264 256 208 215 238 263 274 259 238 217 225 231 239 232 226 197 184 186 183 182 189 192 198 202 205 206 205 210 212 210 202 192 198 206 207 210 210 210 211 216 213 206 214
217 207 191 200 218 231 212 258 234 216 241 267 271 275 270 252 238 232 228 227 215 205 185 189 184 184 193 183 173 188 188 190 199 206 212 203 203 193 200 205 210 213 215 212 211 213 207 203 207